When you browse on this site, cookies collect data to enhance your experience and personalize the content and advertising you see.
Visit our Privacy Policy to learn more. By continuing to use the site, you agree to this use of cookies and data.
  • In Germany
  • List of Countries
  • For 7 days
  • Water Temperature
  • Satellite Maps
  • Weather Map
  • Weather Widgets
  • user-avatar
    Login

    Hourly Weather Crimmitschau

    Today, 18 December, Tuesday

    Time Temperature Precipitation Wind Pressure Humidity
    00:00 0°C° 0 mm 4 mps 745 mmHg 92%
    01:00 +2°C° 0 mm 3 mps 745 mmHg 94%
    02:00 +1°C° 0 mm 3 mps 745 mmHg 94%
    03:00 +1°C° 0 mm 3 mps 745 mmHg 94%
    04:00 +1°C° 0 mm 3 mps 745 mmHg 94%
    05:00 +1°C° 0 mm 3 mps 745 mmHg 94%
    06:00 +1°C° 0 mm 3 mps 745 mmHg 94%
    07:00 +1°C° 0 mm 2 mps 745 mmHg 94%
    08:00 +2°C° 0 mm 2 mps 745 mmHg 93%
    09:00 +1°C° 0 mm 3 mps 745 mmHg 92%
    10:00 +1°C° 0 mm 3 mps 745 mmHg 91%
    11:00 +2°C° 0 mm 3 mps 745 mmHg 88%
    12:00 +3°C° 0 mm 3 mps 745 mmHg 85%
    13:00 +5°C° 0 mm 2 mps 745 mmHg 83%
    14:00 +4°C° 0 mm 2 mps 744 mmHg 86%
    15:00 +3°C° 0 mm 2 mps 744 mmHg 88%
    16:00 +2°C° 0 mm 2 mps 744 mmHg 90%
    17:00 +1°C° 0 mm 2 mps 743 mmHg 90%
    18:00 +1°C° 0 mm 2 mps 743 mmHg 91%
    19:00 -1°C° 0 mm 2 mps 743 mmHg 91%
    20:00 -1°C° 0 mm 2 mps 743 mmHg 91%
    21:00 -1°C° 0 mm 3 mps 743 mmHg 91%
    22:00 -1°C° 0 mm 3 mps 742 mmHg 90%
    23:00 -1°C° 0 mm 3 mps 742 mmHg 89%

    Tomorrow, 19 December, Wednesday

    Time Temperature Precipitation Wind Pressure Humidity
    00:00 -1°C° 0 mm 3 mps 741 mmHg 87%
    01:00 -1°C° 0 mm 3 mps 741 mmHg 86%
    02:00 -1°C° 0 mm 3 mps 741 mmHg 84%
    03:00 -1°C° 0 mm 3 mps 740 mmHg 83%
    04:00 -1°C° 0 mm 3 mps 740 mmHg 81%
    05:00 -2°C° 0 mm 4 mps 739 mmHg 79%
    06:00 -2°C° 0 mm 4 mps 739 mmHg 78%
    07:00 -1°C° 0 mm 4 mps 739 mmHg 76%
    08:00 -1°C° 0 mm 4 mps 739 mmHg 74%
    09:00 0°C° 0 mm 4 mps 739 mmHg 72%
    10:00 0°C° 0 mm 4 mps 739 mmHg 69%
    11:00 +1°C° 0 mm 4 mps 739 mmHg 69%
    12:00 +1°C° 0 mm 4 mps 739 mmHg 69%
    13:00 +3°C° 0 mm 4 mps 739 mmHg 69%
    14:00 +1°C° 0.1 mm 4 mps 739 mmHg 72%
    15:00 +2°C° 0.1 mm 3 mps 738 mmHg 76%
    16:00 +1°C° 0.1 mm 3 mps 738 mmHg 79%
    17:00 +1°C° 0.1 mm 3 mps 738 mmHg 81%
    18:00 +1°C° 0.1 mm 3 mps 738 mmHg 82%
    19:00 +1°C° 0.1 mm 3 mps 738 mmHg 84%
    20:00 +1°C° 0 mm 3 mps 738 mmHg 84%
    21:00 +1°C° 0 mm 3 mps 738 mmHg 84%
    22:00 +1°C° 0 mm 3 mps 738 mmHg 84%
    23:00 +1°C° 0.2 mm 3 mps 738 mmHg 85%

    Day after tomorrow, 20 December, Thursday

    Time Temperature Precipitation Wind Pressure Humidity
    00:00 +1°C° 0.2 mm 3 mps 738 mmHg 86%
    01:00 +2°C° 0.2 mm 2 mps 738 mmHg 87%
    02:00 +1°C° 0.3 mm 3 mps 738 mmHg 88%
    03:00 +1°C° 0.3 mm 3 mps 738 mmHg 89%
    04:00 +1°C° 0.3 mm 3 mps 738 mmHg 90%
    05:00 +1°C° 0.2 mm 3 mps 738 mmHg 91%
    06:00 +1°C° 0.2 mm 3 mps 738 mmHg 92%
    07:00 +2°C° 0.2 mm 3 mps 738 mmHg 92%
    08:00 +2°C° 0.1 mm 3 mps 738 mmHg 92%
    09:00 +2°C° 0.1 mm 3 mps 739 mmHg 91%
    10:00 +3°C° 0.1 mm 4 mps 739 mmHg 90%
    11:00 +3°C° 0 mm 4 mps 739 mmHg 88%
    12:00 +4°C° 0 mm 4 mps 738 mmHg 86%
    13:00 +5°C° 0 mm 4 mps 738 mmHg 84%
    14:00 +4°C° 0 mm 4 mps 738 mmHg 85%
    15:00 +4°C° 0 mm 4 mps 738 mmHg 86%
    16:00 +3°C° 0 mm 4 mps 739 mmHg 86%
    17:00 +3°C° 0 mm 4 mps 739 mmHg 87%
    18:00 +3°C° 0 mm 4 mps 739 mmHg 89%
    19:00 +3°C° 0 mm 4 mps 739 mmHg 90%
    20:00 +3°C° 0 mm 4 mps 739 mmHg 89%
    21:00 +3°C° 0 mm 4 mps 739 mmHg 89%
    22:00 +2°C° 0 mm 5 mps 739 mmHg 88%
    23:00 +2°C° 0 mm 5 mps 739 mmHg 88%

    21 December, Friday

    Time Temperature Precipitation Wind Pressure Humidity
    00:00 +2°C° 0 mm 5 mps 739 mmHg 87%
    01:00 +2°C° 0 mm 5 mps 739 mmHg 86%
    02:00 +2°C° 0 mm 5 mps 738 mmHg 86%
    03:00 +2°C° 0 mm 5 mps 738 mmHg 86%
    04:00 +2°C° 0 mm 5 mps 737 mmHg 86%
    05:00 +2°C° 0.1 mm 5 mps 737 mmHg 87%
    06:00 +3°C° 0.1 mm 5 mps 737 mmHg 87%
    07:00 +4°C° 0.1 mm 4 mps 737 mmHg 87%
    08:00 +3°C° 0.2 mm 5 mps 736 mmHg 87%
    09:00 +3°C° 0.2 mm 5 mps 736 mmHg 87%
    10:00 +3°C° 0.2 mm 5 mps 735 mmHg 86%
    11:00 +4°C° 1 mm 6 mps 734 mmHg 86%
    12:00 +4°C° 1 mm 6 mps 733 mmHg 86%
    13:00 +4°C° 1 mm 6 mps 732 mmHg 85%
    14:00 +5°C° 1.6 mm 7 mps 732 mmHg 85%
    15:00 +6°C° 1.6 mm 8 mps 731 mmHg 85%
    16:00 +6°C° 1.6 mm 8 mps 731 mmHg 85%
    17:00 +7°C° 0.2 mm 8 mps 731 mmHg 85%
    18:00 +8°C° 0.2 mm 7 mps 731 mmHg 85%
    19:00 +9°C° 0.2 mm 7 mps 731 mmHg 85%
    20:00 +8°C° 0.2 mm 7 mps 731 mmHg 84%
    21:00 +8°C° 0.2 mm 7 mps 732 mmHg 82%
    22:00 +6°C° 0.2 mm 7 mps 733 mmHg 81%
    23:00 +6°C° 0 mm 7 mps 733 mmHg 80%

    22 December, Saturday

    Time Temperature Precipitation Wind Pressure Humidity
    00:00 +5°C° 0 mm 6 mps 733 mmHg 80%
    01:00 +5°C° 0 mm 6 mps 734 mmHg 80%
    02:00 +4°C° 0 mm 6 mps 733 mmHg 81%
    03:00 +4°C° 0 mm 6 mps 733 mmHg 82%
    04:00 +4°C° 0 mm 6 mps 733 mmHg 82%
    05:00 +5°C° 0 mm 5 mps 733 mmHg 83%
    06:00 +5°C° 0 mm 5 mps 733 mmHg 84%
    07:00 +6°C° 0 mm 5 mps 733 mmHg 85%
    08:00 +6°C° 0.1 mm 5 mps 732 mmHg 86%
    09:00 +7°C° 0.1 mm 5 mps 732 mmHg 86%
    10:00 +7°C° 0.1 mm 5 mps 732 mmHg 87%
    11:00 +8°C° 0.4 mm 7 mps 731 mmHg 82%
    12:00 +9°C° 0.4 mm 8 mps 731 mmHg 77%
    13:00 +9°C° 0.4 mm 10 mps 731 mmHg 71%
    14:00 +8°C° 0.1 mm 9 mps 732 mmHg 72%
    15:00 +7°C° 0.1 mm 8 mps 732 mmHg 73%
    16:00 +6°C° 0.1 mm 7 mps 733 mmHg 74%
    17:00 +6°C° 0.1 mm 7 mps 733 mmHg 75%
    18:00 +6°C° 0.1 mm 7 mps 734 mmHg 77%
    19:00 +5°C° 0.1 mm 7 mps 735 mmHg 79%
    20:00 +5°C° 0.2 mm 7 mps 735 mmHg 81%
    21:00 +5°C° 0.2 mm 7 mps 736 mmHg 83%
    22:00 +4°C° 0.2 mm 6 mps 737 mmHg 84%
    23:00 +4°C° 0.1 mm 6 mps 737 mmHg 84%

    23 December, Sunday

    Time Temperature Precipitation Wind Pressure Humidity
    00:00 +4°C° 0.1 mm 6 mps 737 mmHg 84%
    01:00 +4°C° 0.1 mm 6 mps 738 mmHg 84%
    02:00 +4°C° 0.2 mm 6 mps 738 mmHg 83%
    03:00 +4°C° 0.2 mm 6 mps 738 mmHg 83%
    04:00 +4°C° 0.2 mm 7 mps 738 mmHg 82%
    05:00 +4°C° 0 mm 6 mps 738 mmHg 83%
    06:00 +3°C° 0 mm 6 mps 739 mmHg 83%
    07:00 +3°C° 0 mm 6 mps 739 mmHg 83%
    08:00 +3°C° 0 mm 6 mps 739 mmHg 82%
    09:00 +3°C° 0 mm 6 mps 740 mmHg 81%
    10:00 +4°C° 0 mm 6 mps 740 mmHg 80%
    11:00 +4°C° 0 mm 6 mps 740 mmHg 78%
    12:00 +4°C° 0 mm 6 mps 740 mmHg 76%
    13:00 +5°C° 0 mm 7 mps 740 mmHg 74%
    14:00 +4°C° 0 mm 6 mps 740 mmHg 76%
    15:00 +5°C° 0 mm 5 mps 740 mmHg 78%
    16:00 +5°C° 0 mm 5 mps 740 mmHg 79%
    17:00 +4°C° 0 mm 4 mps 741 mmHg 82%
    18:00 +4°C° 0 mm 4 mps 741 mmHg 84%
    19:00 +3°C° 0 mm 4 mps 741 mmHg 87%
    20:00 +3°C° 0 mm 3 mps 741 mmHg 88%
    21:00 +3°C° 0 mm 3 mps 741 mmHg 90%
    22:00 +3°C° 0 mm 3 mps 742 mmHg 92%
    23:00 +3°C° 0 mm 3 mps 741 mmHg 92%
    Show more